Location: Dilsberg
(49.3983°N, 8.8354°E)
Time: 01:06:12
(UTC+00:00)

Cosmos 220 Rocket - Pass Details

Date: 19 May 2025
Orbit: 546 x 580 km, 74.0° (Epoch: 15 June)

Event Time Altitude Azimuth Distance (km) Brightness Sun altitude
Exits shadow 21:57:49 20° 221° (SW) 1,306 5.4 -18.2°
Maximum altitude 22:00:29 59° 296° (WNW) 640 4.3 -18.3°
Drops below altitude 10° 22:04:30 10° 17° (NNE) 1,831 7.3 -18.6°
Sets 22:06:43 0° 21° (NNE) 2,728 8.2 -18.7°
